• Currently

    Reported at Minneapolis, Minneapolis-St. Paul International Airport, MN
    6:53 PM CST WED APR 26 2017
  • 39°F4°C
  • Drizzle
    Drizzle
  • Feels Like:33°F0°CDew Point:32°F0°CHumidity:75% Winds:N 12 mph 19 kph
    Pressure:29.56 in1001 hPaVisibility:10.00 miles16090.00 meters
Time Weather Temp Dew Point
Humidity Winds Visibility Pressure Precipitation
1 hr 24 hr
Friday, April 21
23:53 23:53 Mostly Clear Mostly Clear 43°F6°C 36°F2°C 76% NNW 8 mphNNW 13 kph 10.0 miles16.1 km 30.09 in1019 hPa 0.00 in0.00 mm --
22:53 22:53 Clear Clear 44°F7°C 37°F3°C 76% NNW 6 mphNNW 9 kph 10.0 miles16.1 km 30.09 in1019 hPa 0.00 in0.00 mm --
21:53 21:53 Clear Clear 45°F7°C 37°F3°C 74% NNW 7 mphNNW 11 kph 10.0 miles16.1 km 30.09 in1019 hPa 0.00 in0.00 mm --
20:53 20:53 Mostly Clear Mostly Clear 46°F8°C 37°F3°C 71% NNW 9 mphNNW 15 kph 10.0 miles16.1 km 30.06 in1018 hPa 0.00 in0.00 mm --
19:53 19:53 Partly Cloudy Partly Cloudy 48°F9°C 35°F2°C 61% NNW 13 mphNNW 20 kph 10.0 miles16.1 km 30 in1016 hPa 0.00 in0.00 mm --
18:53 18:53 Mostly Cloudy Mostly Cloudy 50°F10°C 35°F2°C 57% NNW 15 mphNNW 24 kph 10.0 miles16.1 km 30 in1016 hPa 0.00 in0.00 mm --
17:53 17:53 Cloudy Cloudy 50°F10°C 36°F2°C 59% NW 14 mphNW 22 kph 10.0 miles16.1 km 29.97 in1015 hPa 0.00 in0.00 mm --
16:53 16:53 Cloudy Cloudy 50°F10°C 35°F2°C 57% N 16 mphN 26 kph 10.0 miles16.1 km 29.94 in1014 hPa 0.00 in0.00 mm --
15:53 15:53 Cloudy Cloudy 48°F9°C 36°F2°C 63% NW 17 mphNW 28 kph 10.0 miles16.1 km 29.94 in1014 hPa 0.00 in0.00 mm --
15:28 15:28 Cloudy Cloudy 46°F8°C 37°F3°C 71% NW 17 mphNW 28 kph 10.0 miles16.1 km 29.91 in1013 hPa 0.00 in0.00 mm --
14:53 14:53 Cloudy Cloudy 46°F8°C 37°F3°C 71% NW 20 mphNW 31 kph 10.0 miles16.1 km 29.91 in1013 hPa 0.00 in0.00 mm --
13:53 13:53 Cloudy Cloudy 46°F8°C 37°F3°C 71% WNW 16 mphWNW 26 kph 10.0 miles16.1 km 29.91 in1013 hPa 0.00 in0.00 mm --
12:53 12:53 Cloudy Cloudy 45°F7°C 38°F3°C 77% NW 16 mphNW 26 kph 10.0 miles16.1 km 29.91 in1013 hPa 0.00 in0.00 mm --
11:53 11:53 Cloudy Cloudy 45°F7°C 39°F4°C 80% NW 15 mphNW 24 kph 10.0 miles16.1 km 29.88 in1012 hPa 0.00 in0.00 mm --
10:53 10:53 Cloudy Cloudy 43°F6°C 39°F4°C 86% NW 13 mphNW 20 kph 9.0 miles14.5 km 29.88 in1012 hPa 0.00 in0.00 mm --
10:19 10:19 Cloudy Cloudy 42°F6°C 39°F4°C 89% NW 14 mphNW 22 kph 10.0 miles16.1 km 29.88 in1012 hPa 0.00 in0.00 mm --
09:53 09:53 Cloudy Cloudy 43°F6°C 39°F4°C 86% WNW 10 mphWNW 17 kph 10.0 miles16.1 km 29.88 in1012 hPa 0.00 in0.03 mm --
09:46 09:46 Cloudy Cloudy 43°F6°C 39°F4°C 87% NW 12 mphNW 19 kph 10.0 miles16.1 km 29.88 in1012 hPa 0.00 in0.00 mm --
09:32 09:32 Cloudy Cloudy 43°F6°C 39°F4°C 87% WNW 13 mphWNW 20 kph 8.0 miles12.9 km 29.88 in1012 hPa 0.00 in0.00 mm --
08:53 08:53 Cloudy With Light Drizzle Cloudy With Light Drizzle 41°F5°C 39°F4°C 93% NW 10 mphNW 17 kph 2.5 miles4.0 km 29.88 in1012 hPa 0.00 in0.03 mm --
08:43 08:43 Cloudy With Light Drizzle Cloudy With Light Drizzle 41°F5°C 38°F3°C 89% NW 9 mphNW 15 kph 2.5 miles4.0 km 29.88 in1012 hPa 0.00 in0.03 mm --
08:30 08:30 Cloudy With Light Drizzle Cloudy With Light Drizzle 41°F5°C 37°F3°C 87% NW 10 mphNW 17 kph 2.0 miles3.2 km 29.88 in1012 hPa 0.00 in0.00 mm --
08:05 08:05 Cloudy With Light Drizzle Cloudy With Light Drizzle 40°F4°C 38°F3°C 93% NW 7 mphNW 11 kph 2.0 miles3.2 km 29.88 in1012 hPa 0.00 in0.03 mm --
07:53 07:53 Cloudy With Mist And Fog Cloudy With Mist And Fog 41°F5°C 38°F3°C 89% NW 7 mphNW 11 kph 6.0 miles9.7 km 29.88 in1012 hPa 0.00 in0.03 mm --
06:53 06:53 Cloudy With Light Drizzle Cloudy With Light Drizzle 41°F5°C 38°F3°C 89% N 8 mphN 13 kph 4.0 miles6.4 km 29.88 in1012 hPa 0.00 in0.03 mm --
05:53 05:53 Cloudy Cloudy 41°F5°C 38°F3°C 89% N 9 mphN 15 kph 10.0 miles16.1 km 29.88 in1012 hPa 0.00 in0.00 mm --
04:53 04:53 Cloudy With Mist And Fog Cloudy With Mist And Fog 41°F5°C 38°F3°C 89% N 13 mphN 20 kph 5.0 miles8.0 km 29.83 in1010 hPa 0.01 in6.45 mm --
03:53 03:53 Cloudy With Light Rain Cloudy With Light Rain 41°F5°C 39°F4°C 93% N 14 mphN 22 kph 4.0 miles6.4 km 29.85 in1011 hPa 0.02 in12.90 mm --
02:53 02:53 Cloudy With Light Rain Cloudy With Light Rain 42°F6°C 40°F4°C 92% N 9 mphN 15 kph 2.5 miles4.0 km 29.85 in1011 hPa 0.00 in0.03 mm --
01:53 01:53 Cloudy Cloudy 44°F7°C 41°F5°C 89% N 10 mphN 17 kph 10.0 miles16.1 km 29.85 in1011 hPa 0.17 in109.68 mm --
01:44 01:44 Cloudy Cloudy 45°F7°C 43°F6°C 93% N 12 mphN 19 kph 10.0 miles16.1 km 29.85 in1011 hPa 0.00 in0.00 mm --
01:27 01:27 Cloudy With Light Rain Cloudy With Light Rain 45°F7°C 42°F6°C 90% N 10 mphN 17 kph 8.0 miles12.9 km 29.85 in1011 hPa 0.17 in109.68 mm --
00:53 00:53 Cloudy With Thunderstorms Cloudy With Thunderstorms 46°F8°C 43°F6°C 89% NNW 8 mphNNW 13 kph 10.0 miles16.1 km 29.91 in1013 hPa 0.00 in0.00 mm --
00:15 00:15 Cloudy Cloudy 46°F8°C 43°F6°C 89% NE 9 mphNE 15 kph 10.0 miles16.1 km 29.88 in1012 hPa 0.00 in0.00 mm --